GSAT0103 (GALILEO-FM3)

Last updated on Mon Oct 20 2025 00:02:34 GMT+0000 (Coordinated Universal Time)

1 38857U 12055A 25291.80200307 .00000053 00000+0 00000+0 0 9999 2 38857 55.6595 108.1746 0001587 277.8288 82.1986 1.70473529 80895
UTC large
Height (km)
Speed (km/s)
/
Latitude / Longitude
Inclination (degrees)
Orbital Period (minutes)
Azimuth
Elevation
Range (km)
Doppler Factor

Next 0 passes for location: London (51.5072 / 0.1276)

Sorry there are no passes over London.